RH
9 5 4 2 3 4 7 9 4 5 5 9 12 13 14 15 19 25 25 28 23 15 10 5 5 10 12 12 11 11 10 10 11 10 8 6 6 6 8 5 6 8 10 14 21 37 42 55 92
4 2 2 3 4 3 8 8 6 6 5 9 11 14 15 18 18 29 35 31 25 17 8 5 7 10 11 12 12 11 13 15 18 16 13 9 10 11 12 6 6 8 11 14 22 40 55 82 95
2 2 2 3 4 4 8 9 6 7 5 6 9 12 13 19 25 41 39 28 25 13 6 4 9 11 12 13 12 12 15 18 23 24 19 16 14 14 15 10 7 7 10 13 23 44 63 96 97
2 2 3 3 4 4 8 9 5 5 5 6 8 9 13 17 22 32 29 26 20 10 6 6 11 10 12 13 12 13 16 20 24 26 28 22 22 22 21 17 10 12 12 20 29 42 84 92 93
2 2 2 4 4 5 11 10 5 4 5 5 6 7 13 25 27 24 27 28 22 10 5 9 11 10 16 16 11 12 18 26 32 36 40 35 25 28 27 26 20 12 8 11 24 48 73 85 96
2 3 3 3 4 5 9 11 6 5 5 7 6 11 18 32 29 25 26 31 22 9 6 8 10 9 16 15 15 33 63 55 54 58 62 67 73 75 40 32 32 23 12 10 20 37 52 78 87
3 3 3 5 5 5 8 12 9 7 4 6 8 9 21 46 37 26 28 32 21 12 5 7 9 8 13 10 25 57 56 60 65 90 95 94 96 95 96 88 51 48 25 30 58 65 59 46 78
3 4 7 5 4 6 9 14 14 6 6 8 12 15 36 52 40 29 35 30 22 11 5 5 7 6 6 8 29 55 48 41 38 60 87 96 97 96 96 96 95 82 57 31 53 69 71 66 71
8 7 4 4 5 6 8 16 19 9 8 13 19 36 55 48 37 21 40 37 23 10 7 7 6 6 5 11 12 25 25 30 28 58 94 95 97 97 96 97 97 96 96 63 24 49 66 71 77
4 5 4 5 6 6 5 12 23 10 10 23 29 70 80 63 44 26 38 41 26 10 8 6 6 6 13 13 11 10 16 28 39 58 76 95 96 96 98 96 96 98 97 84 78 28 57 61 86
5 6 5 6 6 6 6 7 23 16 13 26 44 90 79 47 33 41 41 39 20 11 10 8 6 9 17 14 10 10 16 28 38 56 81 88 96 96 97 96 96 99 79 68 82 61 58 100 90
7 5 6 6 6 6 5 4 14 22 17 36 42 76 47 28 49 51 42 36 19 12 12 8 7 15 17 12 11 11 13 29 36 58 80 75 96 97 91 90 97 97 88 81 89 97 96 98 84
7 6 6 6 6 5 3 3 8 25 29 35 53 66 59 51 65 52 44 33 23 14 12 7 8 15 17 14 11 11 11 22 39 54 89 88 92 93 90 94 95 100 91 88 79 95 92 99 98
8 8 7 8 7 4 4 7 10 23 35 35 36 49 37 49 37 43 51 33 22 15 15 8 9 16 18 13 12 12 26 33 37 49 81 93 86 90 96 96 96 98 96 95 85 91 87 92 91
8 9 9 8 5 5 12 9 18 32 33 32 36 40 44 44 46 74 57 37 20 17 17 9 10 16 18 13 14 16 38 39 41 72 91 88 89 90 97 95 97 98 97 92 79 82 88 76 83
10 11 10 7 6 10 21 10 43 43 43 47 44 57 51 37 54 88 78 46 23 22 14 9 10 14 15 16 14 12 27 30 44 85 96 94 97 97 96 96 99 99 96 71 80 65 87 94 96
12 14 11 6 6 10 27 20 50 55 45 32 62 51 28 36 55 84 75 50 30 23 13 7 10 12 17 16 13 10 16 27 68 88 93 97 92 90 95 98 98 97 60 76 96 76 93 100 97
15 15 9 6 6 20 31 32 42 66 54 42 30 40 32 39 66 83 75 58 29 25 12 8 11 13 15 16 9 12 18 33 90 83 95 97 97 92 97 96 97 69 55 89 95 94 100 98 94
14 10 9 6 6 33 36 27 32 65 60 52 24 23 25 37 82 91 77 53 31 27 12 10 13 15 18 11 8 12 20 52 93 92 97 97 98 98 97 89 92 71 79 88 80 81 84 84 91
14 11 9 6 9 31 39 24 24 56 65 35 23 22 29 52 83 95 78 43 34 21 14 15 17 21 16 8 7 18 51 86 100 96 96 97 97 96 97 96 80 72 84 75 72 81 89 92 96
14 11 10 6 14 38 31 26 38 57 53 28 24 27 31 52 80 96 64 43 34 20 18 21 23 21 15 7 7 19 38 70 92 93 93 96 97 97 96 96 96 97 92 88 85 100 100 98 95
15 13 11 8 7 32 40 17 43 58 33 25 27 32 37 54 92 92 54 41 42 25 21 24 27 23 15 8 7 10 16 68 79 79 86 88 88 96 97 98 97 93 96 92 98 95 100 100 100
15 13 11 9 8 34 44 36 22 53 34 25 35 44 59 66 91 68 57 46 53 37 22 26 29 23 14 14 11 7 7 18 28 60 81 84 79 77 90 96 97 97 97 96 97 98 92 96 98
16 12 11 8 13 23 45 44 30 54 36 39 50 66 86 98 99 70 59 52 47 41 26 30 29 21 14 18 14 9 8 7 9 16 53 75 82 79 80 84 94 96 92 89 95 97 97 92 98
15 12 11 13 15 36 57 59 48 66 40 40 69 85 87 91 91 66 53 50 58 37 32 25 32 25 22 23 19 12 12 12 8 8 10 22 71 76 81 93 99 97 94 97 96 96 100 98 97
11 11 19 20 30 73 81 72 75 67 62 43 63 84 91 91 85 57 54 50 62 60 48 25 27 28 28 27 22 14 14 15 16 19 17 9 25 78 85 92 95 97 98 96 95 96 98 97 95
13 17 28 33 81 86 92 91 79 55 65 62 92 96 97 91 85 66 67 69 73 74 51 57 25 19 19 21 20 20 15 15 18 19 19 17 11 30 80 87 97 97 98 94 93 96 95 92 88
9 19 44 82 96 94 94 87 74 57 70 70 94 90 76 90 97 94 81 74 86 74 50 67 57 38 20 19 19 20 21 18 17 21 24 15 14 15 15 44 82 93 96 97 98 98 98 97 94
13 41 76 94 99 98 96 90 68 75 67 88 88 69 72 98 95 93 100 91 59 56 57 61 61 57 50 33 23 26 24 23 19 23 24 22 18 15 17 18 16 17 26 42 69 83 86 76 67
24 37 75 96 99 99 98 100 70 68 84 99 98 79 74 79 97 96 96 82 62 48 75 64 66 66 68 67 61 42 44 38 29 28 31 27 22 17 19 20 19 20 20 20 19 18 18 19 20
Wind_Speed
39 37 35 33 30 30 27 24 29 29 31 30 30 30 27 26 25 26 26 28 31 29 28 27 24 24 26 24 24 26 28 28 29 27 22 22 25 29 31 30 27 28 28 29 28 25 23 21 18
35 32 28 28 29 28 23 25 29 29 31 32 34 32 29 26 27 26 27 32 31 29 30 27 25 25 25 24 25 28 31 31 29 29 26 23 23 25 27 27 26 28 27 28 28 26 23 21 18
32 29 30 30 31 28 22 26 30 29 33 35 36 35 34 26 29 27 29 32 32 28 29 25 28 28 26 25 25 27 30 30 29 29 30 28 25 23 21 21 24 26 28 29 28 25 21 19 19
33 32 32 30 34 27 21 24 31 33 35 36 38 37 37 32 30 30 30 31 33 28 28 26 29 29 29 26 25 29 29 30 29 29 30 33 31 27 21 18 19 23 28 29 29 24 19 19 17
32 31 32 35 32 26 20 24 33 35 35 39 40 38 35 34 33 35 32 29 30 29 28 26 31 30 28 27 27 29 31 30 32 32 33 32 33 30 24 20 17 19 24 28 27 22 19 21 22
33 33 34 33 36 32 25 23 31 34 39 37 39 36 37 38 35 35 32 26 26 30 30 26 30 29 30 30 34 31 32 28 32 35 38 33 31 33 28 23 20 21 23 24 25 25 24 25 26
35 34 35 37 39 34 23 23 28 33 41 39 38 41 40 36 36 39 30 27 25 30 30 27 28 29 30 33 37 31 28 28 30 36 34 37 36 33 31 25 22 22 23 26 25 25 27 26 27
35 35 39 38 35 27 24 22 28 37 40 40 41 46 44 42 43 40 28 27 26 26 28 28 31 30 31 33 32 27 25 28 29 25 26 45 39 27 24 30 21 20 20 24 30 27 28 26 25
38 41 39 35 32 32 30 25 29 37 40 43 46 50 49 48 44 37 27 25 27 22 23 28 29 25 25 22 25 24 24 26 27 25 27 33 38 24 18 21 29 27 19 20 27 31 28 28 25
39 38 37 34 36 37 40 31 31 38 43 47 49 52 48 49 48 39 28 23 26 22 21 22 20 17 18 19 21 22 22 24 25 26 24 24 26 34 24 26 22 22 20 19 20 32 29 25 26
37 38 35 37 38 40 42 37 34 41 44 50 53 50 52 51 47 40 28 25 24 21 19 21 17 15 17 18 21 20 21 23 25 28 26 29 26 29 30 31 32 27 19 20 18 22 26 28 29
40 35 36 39 41 43 41 38 40 43 44 48 54 51 52 49 44 36 29 25 22 17 19 18 17 16 16 17 20 21 22 23 27 28 27 28 25 22 28 26 31 35 22 17 20 23 22 34 32
40 35 40 41 44 44 40 43 42 45 42 47 51 51 48 50 44 30 29 25 21 17 19 15 17 16 16 17 20 23 25 26 25 23 23 28 31 25 23 23 41 39 26 17 20 25 26 27 25
36 38 39 41 43 42 41 39 44 39 40 49 51 49 47 48 40 38 33 28 19 17 17 15 18 15 16 17 21 25 20 19 24 25 24 26 30 33 31 25 35 39 28 26 20 24 29 29 25
36 38 39 39 38 39 38 45 42 32 41 49 49 46 48 42 33 31 30 25 19 17 14 17 17 16 16 17 20 23 21 24 23 24 24 26 28 32 34 36 36 38 29 18 23 22 25 24 24
37 38 37 35 37 36 43 44 32 32 40 47 46 49 46 39 31 31 27 24 21 18 14 16 17 15 15 17 20 22 24 24 23 20 23 27 27 31 28 32 35 35 30 19 29 27 24 23 23
36 38 36 38 36 39 43 43 29 35 39 44 48 49 42 36 32 26 24 25 22 18 12 13 12 11 12 17 19 22 22 21 23 22 18 23 27 30 28 37 36 31 24 22 21 30 27 27 28
38 36 35 35 34 38 41 40 32 35 40 43 46 48 45 36 32 29 26 26 24 15 10 11 9 11 12 15 17 18 21 19 20 24 22 18 29 33 30 40 35 29 23 20 19 19 21 28 29
34 35 35 32 33 34 39 38 32 36 41 41 40 41 41 34 33 30 28 28 19 15 8 9 9 10 11 13 13 15 21 15 14 19 19 18 34 28 35 32 31 27 25 24 24 21 22 24 23
34 34 30 33 30 32 36 36 33 33 41 43 38 33 32 35 35 30 28 28 16 12 8 9 9 10 11 11 11 14 13 8 10 15 17 19 33 37 36 31 28 27 29 22 24 26 21 23 25
33 34 30 34 29 31 35 35 35 31 39 42 38 34 31 29 33 31 28 27 15 10 9 8 10 10 10 9 8 8 7 8 10 10 16 20 29 30 33 32 30 27 27 32 27 26 24 26 27
32 31 31 34 30 35 39 28 36 32 37 38 35 32 30 32 32 30 28 25 14 11 9 9 11 11 10 7 8 5 5 7 8 12 13 21 25 33 35 34 31 28 28 28 27 28 31 29 26
30 32 30 32 28 36 40 37 31 29 38 37 33 30 29 31 28 27 28 24 15 13 10 11 12 11 11 8 7 6 5 4 5 9 12 14 25 33 35 40 36 35 33 36 33 30 29 30 28
31 29 28 30 29 35 41 39 32 29 34 32 33 28 27 32 33 30 31 26 19 13 9 12 13 12 12 10 7 6 5 4 4 6 6 12 17 29 36 39 37 37 34 38 35 33 33 34 31
29 27 28 31 31 36 42 38 36 21 35 36 32 30 31 33 31 32 33 28 20 15 9 12 16 15 15 12 10 8 6 4 3 2 4 6 12 18 20 24 39 38 33 32 36 35 34 35 31
27 26 26 30 31 35 39 38 34 27 34 38 31 31 32 31 33 30 31 27 20 15 10 11 19 17 17 15 12 10 9 7 5 3 3 4 6 8 21 20 26 38 33 33 32 35 37 38 32
26 24 27 29 30 35 37 27 26 27 34 34 30 32 30 28 27 27 28 26 23 17 15 13 14 16 15 16 13 12 12 12 10 10 10 6 3 3 12 20 24 32 34 33 29 33 34 32 31
25 25 24 24 27 31 30 22 31 30 35 29 31 33 33 29 31 30 29 30 27 24 20 16 15 11 13 15 14 13 14 15 15 13 12 9 10 8 7 10 16 21 21 23 24 22 28 27 26
24 23 22 18 25 23 18 19 31 28 34 33 34 33 32 33 36 30 33 34 32 29 21 19 17 13 14 14 14 15 15 17 18 18 18 15 13 12 12 12 11 11 13 15 16 17 19 18 21
24 24 22 18 15 18 20 20 20 21 28 37 33 32 32 29 24 27 32 33 33 30 25 20 16 13 12 11 13 16 18 19 19 19 18 15 15 16 16 15 16 17 18 17 17 19 21 22 24
Wind_Direction
283 281 282 282 285 293 291 289 293 291 292 291 288 291 291 291 294 292 289 279 280 282 288 290 283 280 281 283 289 291 289 288 279 270 265 265 269 262 254 250 249 249 246 243 240 235 231 229 234
277 277 276 278 285 292 291 286 292 294 295 292 291 293 286 284 291 289 287 285 282 285 288 288 282 281 281 289 296 296 291 285 276 271 266 262 263 265 255 246 243 243 243 245 241 238 232 229 232
269 270 272 278 288 292 288 286 289 287 292 291 289 288 284 282 282 282 282 284 278 286 283 282 281 284 283 290 297 295 291 285 281 275 273 269 262 265 262 254 244 241 240 241 241 238 230 221 230
267 269 269 277 286 293 285 278 292 292 291 289 287 286 286 284 275 273 278 275 277 282 281 279 281 283 284 291 292 290 292 287 281 274 268 265 267 265 262 254 245 240 239 237 237 235 225 227 224
263 266 270 280 283 288 273 273 292 295 290 287 288 289 286 279 273 275 273 267 278 278 276 275 279 284 286 284 285 290 284 286 281 276 267 260 259 261 257 252 240 236 235 237 235 228 225 227 226
260 270 270 275 283 281 273 266 288 290 286 280 284 280 274 270 268 269 274 260 273 274 272 267 275 283 279 277 282 284 284 283 285 279 270 257 252 255 256 247 246 236 229 228 225 225 223 222 227
261 264 266 276 282 288 287 264 276 279 283 280 275 269 269 261 264 266 274 261 263 276 277 270 273 276 275 277 278 279 289 287 292 288 254 262 238 233 237 240 244 245 233 226 215 212 218 220 226
261 261 271 275 280 290 282 261 254 275 278 274 263 261 257 258 261 261 270 265 265 274 279 275 269 269 275 281 282 275 282 282 278 286 261 240 250 260 241 224 250 228 237 227 218 216 213 219 224
264 265 269 270 279 277 273 249 237 267 271 260 256 254 256 258 260 267 266 270 274 278 281 274 268 272 276 276 279 282 279 273 276 275 265 233 243 222 265 219 243 250 254 234 220 214 218 221 226
261 264 263 266 272 275 278 261 233 261 260 247 249 248 250 257 261 271 265 268 280 280 285 277 272 271 267 280 282 291 281 271 268 271 265 261 236 223 226 241 220 226 249 231 233 215 215 222 224
262 262 262 267 271 273 278 276 239 247 251 240 244 247 250 256 262 273 259 264 271 277 289 281 271 261 264 282 287 288 290 273 269 272 262 247 233 233 235 246 227 224 236 240 220 208 212 219 224
261 263 266 267 269 272 278 277 258 247 245 238 242 248 252 260 267 272 255 263 269 277 283 269 260 252 264 275 286 292 294 277 270 268 262 244 228 229 236 217 215 226 234 224 217 218 217 228 225
263 262 264 268 271 275 280 284 263 249 237 237 241 244 251 257 262 271 259 261 267 273 279 261 252 251 260 274 283 290 291 284 278 270 252 241 229 224 223 211 210 228 225 224 225 229 224 230 242
262 261 264 271 273 278 280 274 267 252 232 236 241 245 250 254 263 270 261 260 268 271 274 264 248 248 261 275 279 289 286 287 279 267 249 236 230 229 211 207 213 225 230 231 223 232 226 227 235
262 263 268 273 277 280 276 274 264 248 237 239 239 243 248 254 264 267 258 267 268 267 279 272 255 251 263 274 279 287 275 282 290 270 242 238 234 222 216 213 214 218 229 226 216 220 210 216 215
262 266 270 273 278 280 274 280 246 240 235 236 237 239 246 253 258 258 267 268 267 271 270 267 261 259 268 272 283 282 277 287 285 268 234 237 227 220 215 208 205 219 232 222 217 222 215 220 223
266 266 270 273 280 276 269 273 228 236 234 228 233 240 246 249 251 249 259 262 262 267 274 270 260 260 266 275 281 282 287 290 277 254 247 236 217 212 218 200 210 221 231 209 209 217 217 221 227
261 271 273 275 283 275 269 263 229 232 232 226 233 240 247 249 255 253 249 255 255 262 273 271 256 258 264 277 281 285 290 296 271 243 247 243 207 209 208 204 208 218 219 204 195 203 213 218 221
268 270 274 280 278 280 264 256 234 238 235 228 228 238 245 242 251 254 253 250 243 253 264 258 255 257 270 281 284 291 296 292 263 240 245 217 191 194 189 198 211 210 208 205 207 207 210 224 231
268 273 276 274 280 273 255 251 246 249 229 224 224 229 235 240 250 255 254 245 232 242 245 246 252 257 275 284 299 309 304 288 244 247 235 165 178 189 199 203 207 213 215 219 224 215 219 229 231
271 274 277 274 280 263 249 247 246 236 220 216 219 222 233 243 248 246 237 236 223 230 232 238 248 259 275 282 296 315 335 287 274 274 243 229 199 202 208 217 216 228 227 229 242 232 240 238 235
268 271 272 272 287 263 244 244 240 225 216 216 216 221 227 238 242 236 229 228 213 223 228 236 246 256 268 271 287 303 328 344 277 255 259 242 241 225 218 221 228 227 241 234 245 251 248 231 233
266 267 273 277 286 262 238 244 238 225 216 216 216 218 232 236 224 224 227 230 207 217 225 235 242 250 259 258 270 286 315 344 351 299 263 257 239 234 234 232 226 232 244 251 253 252 247 240 246
266 271 279 280 281 260 240 244 243 224 211 215 220 223 223 231 228 215 220 225 216 205 213 230 237 244 252 251 254 255 285 297 314 330 306 272 253 238 233 234 234 235 241 244 244 244 251 253 240
266 273 279 280 279 262 240 239 248 216 212 211 216 212 222 225 219 212 220 224 224 199 204 228 236 237 245 252 245 230 245 258 261 293 310 317 260 242 226 233 221 224 238 242 241 244 249 249 245
265 266 275 285 280 258 243 237 246 218 219 210 215 210 218 234 211 213 220 226 222 217 204 236 235 239 246 250 251 240 234 227 242 273 302 309 322 251 226 222 220 230 237 249 251 250 248 239 249
262 266 269 277 270 253 245 244 246 216 210 213 210 221 218 214 208 205 213 217 220 220 210 225 242 246 253 256 257 256 251 241 240 262 274 258 243 276 228 230 233 242 237 249 250 244 241 246 255
258 265 266 265 258 256 256 240 228 215 200 219 217 212 212 215 212 205 216 218 217 221 218 225 238 247 256 260 267 272 265 266 264 264 274 264 236 213 233 236 237 237 232 229 236 245 248 246 251
247 252 254 250 243 240 260 230 224 219 217 214 200 206 207 214 224 202 206 222 225 230 228 230 239 245 258 265 268 271 271 264 265 276 289 286 273 250 231 227 232 241 242 246 244 241 238 250 261
238 249 241 223 256 251 250 231 236 227 218 202 198 204 217 211 225 207 213 224 232 234 231 238 246 243 247 252 257 265 268 266 265 272 282 292 283 264 260 255 247 238 239 240 245 248 252 251 253